Simultaneous Nadir Overpasses (SNOs) Predictions

Prediction of SNOs between GOES-17 and METOP-C Satellite Orbit:

Table of predicted SNOs for the next 14.0 days since TLE Epoch: 7/15/2023
Index Date Time (GOES-17) GOES-17 Lat,Lon METOP-C Lat,Lon Distance(km) Time Diff (sec)
1 07/16/2023 04:37:55 0.01,-104.71 -0.40,-106.62 218.02 80
2 07/17/2023 04:14:35 0.01,-104.70 0.70,-101.62 351.00 80
3 07/18/2023 16:33:26 -0.01,-104.73 0.29,-106.19 165.55 80
4 07/19/2023 16:15:25 -0.01,-104.73 -0.81,-101.19 403.92 80
5 07/21/2023 04:34:24 0.01,-104.71 -0.23,-105.78 122.42 80
6 07/22/2023 04:11:03 0.00,-104.71 0.87,-100.78 446.94 80
7 07/23/2023 16:29:54 -0.00,-104.74 0.14,-105.35 69.48 80
8 07/26/2023 04:30:52 0.01,-104.71 -0.06,-104.94 25.96 80
9 07/28/2023 16:29:04 -0.01,-104.73 -0.08,-104.51 25.81 80
